�N����,�����b,�ŏ������i�x�j,���ϕ����i�x�j,�ő啗���i�x�j,�ŏ�����(m/s),���ϕ���(m/s),�ő啗��(m/s),�C��(���j,���x�i���j,�C��(hPa),�~�J��(mm),�~�J����(�b�j,�~�J���x(mm/h),�ő�~�J���x(mm/h),�~�Ђ傤��(hit/���u),�~�Ђ傤����(�b�j,�~�Ђ傤���x(hit/���uh),�ő�~�Ђ傤���x(hit/���uh),�q�[�^���x(���j,�q�[�^�[�d���iV),�d���d���iV),�Q�Ɠd���iV)
2014/09/01,00:00:01,207,208,209,1.0,1.0,1.2,27.5,82.0,1005.0,0.00,0,0.0,////,0.0,0,0.0,////,26.3,0.0,12.3,3.515
2014/09/01,00:10:01,190,191,191,1.4,1.4,1.5,27.5,81.8,1004.8,0.00,0,0.0,////,0.0,0,0.0,////,26.3,0.0,12.3,3.513
2014/09/01,00:20:01,182,186,190,1.3,1.4,1.4,27.1,83.5,1004.7,0.00,0,0.0,////,0.0,0,0.0,////,26.0,0.0,12.3,3.514
2014/09/01,00:30:01,174,177,180,1.3,1.4,1.5,27.0,84.0,1004.7,0.00,0,0.0,////,0.0,0,0.0,////,26.0,0.0,12.3,3.511
2014/09/01,00:40:01,183,186,191,1.3,1.5,1.6,26.9,84.1,1004.6,0.00,0,0.0,////,0.0,0,0.0,////,25.8,0.0,12.3,3.513
2014/09/01,00:50:01,212,216,219,1.1,1.1,1.2,26.9,84.3,1004.5,0.00,0,0.0,////,0.0,0,0.0,////,25.8,0.0,12.3,3.511
2014/09/01,01:00:01,172,174,176,1.1,1.2,1.3,27.0,83.6,1004.6,0.00,0,0.0,////,0.0,0,0.0,////,26.0,0.0,12.3,3.511
2014/09/01,01:10:01,177,180,183,1.2,1.3,1.4,26.8,84.2,1004.5,0.00,0,0.0,////,0.0,0,0.0,////,25.8,0.0,12.3,3.511
2014/09/01,01:20:01,172,172,173,0.8,0.8,0.9,26.8,84.7,1004.4,0.00,0,0.0,////,0.0,0,0.0,////,25.8,0.0,12.2,3.511
2014/09/01,01:30:01,157,158,159,0.8,0.9,1.0,26.7,85.4,1004.5,0.00,0,0.0,////,0.0,0,0.0,////,25.6,0.0,12.3,3.513
2014/09/01,01:40:01,197,206,211,1.2,1.4,1.5,26.6,85.8,1004.5,0.00,0,0.0,////,0.0,0,0.0,////,25.3,0.0,12.3,3.511
2014/09/01,01:50:01,205,207,210,1.2,1.6,2.1,26.6,85.7,1004.5,0.00,0,0.0,////,0.0,0,0.0,////,25.6,0.0,12.3,3.511
2014/09/01,02:00:01,208,209,210,1.3,1.4,1.5,26.6,85.5,1004.4,0.00,0,0.0,////,0.0,0,0.0,////,25.6,0.0,12.3,3.513
2014/09/01,02:10:01,200,202,203,1.6,1.7,2.0,26.6,85.3,1004.3,0.00,0,0.0,////,0.0,0,0.0,////,25.8,0.0,12.3,3.511
2014/09/01,02:20:01,195,198,199,1.9,2.0,2.2,26.5,85.7,1004.2,0.00,0,0.0,////,0.0,0,0.0,////,25.6,0.0,12.3,3.513
2014/09/01,02:30:01,195,201,208,1.5,1.6,1.7,26.4,85.9,1004.2,0.00,0,0.0,////,0.0,0,0.0,////,25.5,0.0,12.3,3.511
2014/09/01,02:40:01,189,192,194,1.5,1.6,1.7,26.5,85.5,1004.1,0.00,0,0.0,////,0.0,0,0.0,////,25.5,0.0,12.3,3.513
2014/09/01,02:50:01,190,192,194,1.8,1.8,1.9,26.5,85.3,1004.0,0.00,0,0.0,////,0.0,0,0.0,////,25.8,0.0,12.3,3.513
2014/09/01,03:00:01,199,202,206,1.4,1.5,1.6,26.5,84.9,1004.0,0.00,0,0.0,////,0.0,0,0.0,////,25.3,0.0,12.3,3.513
2014/09/01,03:10:01,195,196,196,1.5,1.6,1.7,26.5,84.7,1004.0,0.00,0,0.0,////,0.0,0,0.0,////,25.5,0.0,12.3,3.511
2014/09/01,03:20:01,192,194,196,1.4,1.5,1.6,26.6,84.3,1004.0,0.00,0,0.0,////,0.0,0,0.0,////,25.5,0.0,12.3,3.513
2014/09/01,03:30:01,190,191,193,1.8,1.9,2.1,26.5,84.4,1003.9,0.00,0,0.0,////,0.0,0,0.0,////,25.5,0.0,12.3,3.513
2014/09/01,03:40:01,185,186,187,1.3,1.4,1.5,26.5,84.1,1003.9,0.00,0,0.0,////,0.0,0,0.0,////,25.3,0.0,12.3,3.513
2014/09/01,03:50:01,171,174,176,1.2,1.3,1.5,26.4,84.1,1004.0,0.00,0,0.0,////,0.0,0,0.0,////,25.5,0.0,12.3,3.511
2014/09/01,04:00:01,194,196,197,1.3,1.4,1.5,26.3,84.6,1004.0,0.00,0,0.0,////,0.0,0,0.0,////,25.3,0.0,12.3,3.513
2014/09/01,04:10:01,199,200,202,1.4,1.5,1.6,26.4,83.8,1003.9,0.00,0,0.0,////,0.0,0,0.0,////,25.3,0.0,12.3,3.513
2014/09/01,04:20:01,185,186,187,1.0,1.0,1.1,26.3,83.6,1004.1,0.00,0,0.0,////,0.0,0,0.0,////,25.6,0.0,12.3,3.513
2014/09/01,04:30:01,184,186,188,1.1,1.2,1.3,26.1,84.1,1004.1,0.00,0,0.0,////,0.0,0,0.0,////,25.3,0.0,12.3,3.513
2014/09/01,04:40:01,185,186,186,1.0,1.0,1.1,26.2,83.2,1004.2,0.00,0,0.0,////,0.0,0,0.0,////,25.3,0.0,12.3,3.513
2014/09/01,04:50:01,175,175,176,0.9,1.0,1.1,26.3,81.6,1004.3,0.00,0,0.0,////,0.0,0,0.0,////,25.3,0.0,12.3,3.513
2014/09/01,05:00:01,211,212,213,0.9,0.9,1.0,26.6,79.3,1004.5,0.00,0,0.0,////,0.0,0,0.0,////,25.5,0.0,12.3,3.511
2014/09/01,05:10:01,221,223,224,1.1,1.2,1.3,26.8,77.6,1004.6,0.00,0,0.0,////,0.0,0,0.0,////,25.6,0.0,12.3,3.513
2014/09/01,05:20:01,233,236,239,1.0,1.2,1.3,26.8,78.0,1004.7,0.00,0,0.0,////,0.0,0,0.0,////,25.8,0.0,12.3,3.513
2014/09/01,05:30:01,227,229,232,0.9,1.0,1.1,26.7,78.5,1004.6,0.00,0,0.0,////,0.0,0,0.0,////,25.5,0.0,12.3,3.511
2014/09/01,05:40:01,208,208,209,1.4,1.4,1.5,26.6,79.1,1004.7,0.00,0,0.0,////,0.0,0,0.0,////,25.5,0.0,12.3,3.513
2014/09/01,05:50:01,197,198,200,1.4,1.5,1.6,26.4,79.2,1004.8,0.00,0,0.0,////,0.0,0,0.0,////,25.5,0.0,12.3,3.511
2014/09/01,06:00:01,198,199,199,1.4,1.5,1.5,26.4,79.7,1004.8,0.00,0,0.0,////,0.0,0,0.0,////,25.3,0.0,12.3,3.511
2014/09/01,06:10:01,190,191,191,1.2,1.2,1.3,26.4,80.2,1004.9,0.00,0,0.0,////,0.0,0,0.0,////,25.3,0.0,12.3,3.511
2014/09/01,06:20:01,185,186,186,1.2,1.2,1.3,26.4,80.1,1005.0,0.00,0,0.0,////,0.0,0,0.0,////,25.5,0.0,12.3,3.513
2014/09/01,06:30:01,207,212,214,1.0,1.1,1.3,26.2,80.4,1005.0,0.00,0,0.0,////,0.0,0,0.0,////,25.5,0.0,12.3,3.514
2014/09/01,06:40:01,200,203,204,1.4,1.5,1.6,26.4,80.4,1005.1,0.00,0,0.0,////,0.0,0,0.0,////,26.0,0.0,12.3,3.513
2014/09/01,06:50:01,199,201,202,1.7,1.8,1.9,26.6,79.8,1005.1,0.00,0,0.0,////,0.0,0,0.0,////,26.7,0.0,12.3,3.513
2014/09/01,07:00:01,196,204,213,0.9,1.0,1.1,26.9,79.4,1005.1,0.00,0,0.0,////,0.0,0,0.0,////,27.4,0.0,12.3,3.511
2014/09/01,07:10:01,214,215,216,1.0,1.2,1.4,27.3,79.0,1005.2,0.00,0,0.0,////,0.0,0,0.0,////,28.2,0.0,12.3,3.511
2014/09/01,07:20:01,237,242,246,1.3,1.4,1.6,27.6,79.1,1005.2,0.00,0,0.0,////,0.0,0,0.0,////,28.9,0.0,12.3,3.510
2014/09/01,07:30:01,186,201,218,0.9,1.0,1.2,27.9,77.5,1005.5,0.00,0,0.0,////,0.0,0,0.0,////,29.6,0.0,12.3,3.513
2014/09/01,07:40:01,196,201,204,1.3,1.5,1.7,28.2,77.7,1005.5,0.00,0,0.0,////,0.0,0,0.0,////,30.3,0.0,12.4,3.511
2014/09/01,07:50:01,238,246,251,1.4,1.6,1.7,28.2,76.6,1005.6,0.00,0,0.0,////,0.0,0,0.0,////,30.3,0.0,12.3,3.511
2014/09/01,08:00:01,209,226,241,0.8,1.0,1.2,28.6,76.7,1005.6,0.00,0,0.0,////,0.0,0,0.0,////,31.0,0.0,12.3,3.511
2014/09/01,08:10:01,241,247,250,0.9,1.2,1.4,28.8,76.2,1005.8,0.00,0,0.0,////,0.0,0,0.0,////,31.5,0.0,12.3,3.511
2014/09/01,08:20:01,231,244,255,0.9,1.1,1.2,28.8,76.0,1005.8,0.00,0,0.0,////,0.0,0,0.0,////,31.8,0.0,12.3,3.511
2014/09/01,08:30:01,241,247,251,2.1,2.4,2.5,28.8,75.7,1005.7,0.00,0,0.0,////,0.0,0,0.0,////,31.8,0.0,12.3,3.513
2014/09/01,08:40:01,212,212,213,1.0,1.4,1.7,28.9,75.4,1005.6,0.00,0,0.0,////,0.0,0,0.0,////,31.7,0.0,12.3,3.513
2014/09/01,08:50:01,223,225,228,1.3,1.5,1.6,29.1,75.6,1005.8,0.00,0,0.0,////,0.0,0,0.0,////,32.7,0.0,12.3,3.511
2014/09/01,09:00:01,220,223,226,1.0,1.3,1.6,29.2,75.6,1005.7,0.00,0,0.0,////,0.0,0,0.0,////,32.9,0.0,12.3,3.510
2014/09/01,09:10:01,233,239,242,2.3,2.4,2.5,29.3,74.4,1005.5,0.00,0,0.0,////,0.0,0,0.0,////,33.4,0.0,12.3,3.510
2014/09/01,09:20:01,216,227,240,1.4,1.5,1.7,29.3,73.9,1005.5,0.00,0,0.0,////,0.0,0,0.0,////,33.7,0.0,12.3,3.511
2014/09/01,09:30:01,255,256,257,1.7,1.9,2.0,29.7,73.3,1005.4,0.00,0,0.0,////,0.0,0,0.0,////,34.1,0.0,12.3,3.511
2014/09/01,09:40:01,223,240,256,1.5,1.7,2.0,29.9,72.1,1005.5,0.00,0,0.0,////,0.0,0,0.0,////,34.8,0.0,12.3,3.511
2014/09/01,09:50:01,268,279,287,1.0,1.2,1.4,29.9,73.1,1005.4,0.00,0,0.0,////,0.0,0,0.0,////,35.0,0.0,12.3,3.513
2014/09/01,10:00:01,221,223,225,1.8,1.8,1.9,29.9,72.6,1005.4,0.00,0,0.0,////,0.0,0,0.0,////,35.1,0.0,12.3,3.510
2014/09/01,10:10:01,258,264,272,0.8,1.0,1.2,30.1,72.3,1005.5,0.00,0,0.0,////,0.0,0,0.0,////,35.3,0.0,12.3,3.513
2014/09/01,10:20:01,289,295,306,1.5,1.7,1.9,30.2,71.5,1005.5,0.00,0,0.0,////,0.0,0,0.0,////,36.0,0.0,12.3,3.513
2014/09/01,10:30:01,269,272,274,1.5,1.6,1.6,30.2,73.6,1005.4,0.00,0,0.0,////,0.0,0,0.0,////,35.6,0.0,12.3,3.511
2014/09/01,10:40:01,298,311,328,0.9,1.3,1.5,30.1,72.7,1005.4,0.00,0,0.0,////,0.0,0,0.0,////,35.3,0.0,12.3,3.511
2014/09/01,10:50:01,315,317,318,1.6,1.8,2.2,30.2,72.3,1005.5,0.00,0,0.0,////,0.0,0,0.0,////,35.3,0.0,12.3,3.514
2014/09/01,11:00:01,300,304,306,1.8,1.9,1.9,30.1,72.4,1005.5,0.00,0,0.0,////,0.0,0,0.0,////,35.5,0.0,12.3,3.513
2014/09/01,11:10:01,301,306,314,2.0,2.3,2.6,30.0,72.7,1005.4,0.00,0,0.0,////,0.0,0,0.0,////,35.1,0.0,12.3,3.511
2014/09/01,11:20:01,299,330,007,0.3,0.5,0.7,30.2,71.0,1005.3,0.00,0,0.0,////,0.0,0,0.0,////,35.8,0.0,12.3,3.510
2014/09/01,11:30:01,287,294,298,1.2,1.3,1.4,30.3,70.9,1005.4,0.00,0,0.0,////,0.0,0,0.0,////,36.0,0.0,12.3,3.511
2014/09/01,11:40:01,357,004,016,1.6,1.7,1.8,30.6,71.4,1005.4,0.00,0,0.0,////,0.0,0,0.0,////,36.2,0.0,12.3,3.511
2014/09/01,11:50:01,306,311,314,1.4,1.7,1.9,30.4,71.0,1005.3,0.00,0,0.0,////,0.0,0,0.0,////,36.7,0.0,12.3,3.513
2014/09/01,12:00:01,317,325,339,0.9,1.1,1.5,30.5,69.8,1005.1,0.00,0,0.0,////,0.0,0,0.0,////,36.3,0.0,12.3,3.511
2014/09/01,12:10:01,280,299,331,0.7,0.8,0.9,30.5,69.1,1004.9,0.00,0,0.0,////,0.0,0,0.0,////,36.2,0.0,12.3,3.511
2014/09/01,12:20:01,348,357,003,1.4,1.8,2.2,30.3,69.3,1004.9,0.00,0,0.0,////,0.0,0,0.0,////,36.0,0.0,12.3,3.511
2014/09/01,12:30:01,297,302,309,1.9,2.1,2.4,30.6,69.1,1004.9,0.00,0,0.0,////,0.0,0,0.0,////,35.8,0.0,12.3,3.511
2014/09/01,12:40:01,260,286,303,0.7,1.1,1.7,30.3,70.6,1005.1,0.00,0,0.0,////,0.0,0,0.0,////,35.5,0.0,12.3,3.511
2014/09/01,12:50:01,334,341,346,2.3,2.5,2.7,29.8,69.8,1004.8,0.00,0,0.0,////,0.0,0,0.0,////,35.1,0.0,12.3,3.513
2014/09/01,13:00:01,325,347,011,1.3,1.5,1.7,30.8,68.7,1004.9,0.00,0,0.0,////,0.0,0,0.0,////,35.1,0.0,12.3,3.513
2014/09/01,13:10:01,305,308,311,1.1,1.3,1.4,30.8,69.2,1004.9,0.00,0,0.0,////,0.0,0,0.0,////,35.6,0.0,12.3,3.511
2014/09/01,13:20:01,298,303,309,1.5,1.9,2.3,30.9,69.3,1005.1,0.00,0,0.0,////,0.0,0,0.0,////,36.0,0.0,12.3,3.511
2014/09/01,13:30:01,324,335,342,1.2,1.5,1.7,31.1,69.6,1005.0,0.00,0,0.0,////,0.0,0,0.0,////,36.0,0.0,12.3,3.511
2014/09/01,13:40:01,290,294,297,1.4,1.7,1.9,31.0,68.5,1004.7,0.00,0,0.0,////,0.0,0,0.0,////,36.5,0.0,12.3,3.513
2014/09/01,13:50:01,306,308,309,0.8,1.0,1.2,30.8,67.6,1004.5,0.00,0,0.0,////,0.0,0,0.0,////,36.5,0.0,12.3,3.511
2014/09/01,14:00:01,329,334,343,1.3,1.4,1.7,30.7,68.5,1004.4,0.00,0,0.0,////,0.0,0,0.0,////,36.0,0.0,12.3,3.511
2014/09/01,14:10:01,327,329,331,1.6,1.7,1.8,30.9,68.0,1004.5,0.00,0,0.0,////,0.0,0,0.0,////,35.3,0.0,12.3,3.514
2014/09/01,14:20:01,333,334,336,1.8,2.0,2.3,31.0,71.2,1004.5,0.00,0,0.0,////,0.0,0,0.0,////,35.8,0.0,12.3,3.511
2014/09/01,14:30:01,346,349,354,2.5,2.9,3.2,30.6,69.6,1004.4,0.00,0,0.0,////,0.0,0,0.0,////,35.3,0.0,12.3,3.511
2014/09/01,14:40:01,335,341,345,2.1,2.4,2.8,30.1,72.0,1004.3,0.00,0,0.0,////,0.0,0,0.0,////,33.9,0.0,12.3,3.513
2014/09/01,14:50:01,351,356,000,1.7,1.8,1.9,29.6,73.4,1004.1,0.00,0,0.0,////,0.0,0,0.0,////,32.4,0.0,12.3,3.511
2014/09/01,15:00:01,327,331,334,1.1,1.5,1.9,29.5,71.7,1004.1,0.00,0,0.0,////,0.0,0,0.0,////,32.4,0.0,12.3,3.511
2014/09/01,15:10:01,009,025,052,0.7,1.2,1.7,30.2,72.2,1004.0,0.00,0,0.0,////,0.0,0,0.0,////,33.6,0.0,12.3,3.513
2014/09/01,15:20:01,018,020,023,2.7,2.9,3.2,29.9,71.3,1003.8,0.00,0,0.0,////,0.0,0,0.0,////,33.9,0.0,12.3,3.511
2014/09/01,15:30:01,001,007,012,1.2,1.3,1.5,30.0,71.8,1003.7,0.00,0,0.0,////,0.0,0,0.0,////,33.7,0.0,12.3,3.513
2014/09/01,15:40:01,041,043,044,1.9,2.0,2.1,29.9,70.6,1003.7,0.00,0,0.0,////,0.0,0,0.0,////,33.9,0.0,12.3,3.511
2014/09/01,15:50:01,025,040,053,2.1,2.3,2.4,29.5,72.6,1003.7,0.00,0,0.0,////,0.0,0,0.0,////,33.1,0.0,12.3,3.511
2014/09/01,16:00:01,042,047,049,2.5,2.7,2.9,29.4,72.0,1003.7,0.00,0,0.0,////,0.0,0,0.0,////,32.9,0.0,12.3,3.513
2014/09/01,16:10:01,356,359,004,1.6,1.7,1.9,29.5,72.8,1003.8,0.00,0,0.0,////,0.0,0,0.0,////,32.7,0.0,12.3,3.513
2014/09/01,16:20:01,050,060,065,1.4,1.5,1.7,29.6,73.2,1003.8,0.00,0,0.0,////,0.0,0,0.0,////,32.7,0.0,12.3,3.511
2014/09/01,16:30:01,006,011,016,2.0,2.3,2.6,29.7,71.5,1004.0,0.00,0,0.0,////,0.0,0,0.0,////,32.9,0.0,12.3,3.513
2014/09/01,16:40:01,011,013,016,2.2,2.5,2.8,29.4,72.9,1004.1,0.00,0,0.0,////,0.0,0,0.0,////,32.2,0.0,12.3,3.515
2014/09/01,16:50:01,022,023,025,2.4,2.9,3.3,29.4,74.5,1004.2,0.00,0,0.0,////,0.0,0,0.0,////,31.7,0.0,12.3,3.513
2014/09/01,17:00:01,043,051,065,1.7,2.0,2.3,29.2,74.0,1004.3,0.00,0,0.0,////,0.0,0,0.0,////,31.5,0.0,12.3,3.511
2014/09/01,17:10:01,023,037,056,2.0,2.3,2.5,29.4,74.6,1004.2,0.00,0,0.0,////,0.0,0,0.0,////,31.5,0.0,12.3,3.511
2014/09/01,17:20:01,063,074,086,0.8,1.0,1.1,29.2,75.1,1004.3,0.00,0,0.0,////,0.0,0,0.0,////,31.2,0.0,12.3,3.513
2014/09/01,17:30:01,047,051,054,1.1,1.4,1.6,29.1,73.4,1004.4,0.00,0,0.0,////,0.0,0,0.0,////,30.8,0.0,12.3,3.511
2014/09/01,17:40:01,068,074,086,1.0,1.2,1.4,29.1,74.5,1004.4,0.00,0,0.0,////,0.0,0,0.0,////,30.6,0.0,12.3,3.514
2014/09/01,17:50:01,081,092,102,0.9,1.2,1.4,29.0,74.9,1004.5,0.00,0,0.0,////,0.0,0,0.0,////,30.0,0.0,12.3,3.511
2014/09/01,18:00:01,070,075,080,1.8,1.9,2.0,28.8,76.3,1004.5,0.00,0,0.0,////,0.0,0,0.0,////,29.6,0.0,12.3,3.511
2014/09/01,18:10:01,052,055,060,1.0,1.1,1.2,28.6,77.3,1004.5,0.00,0,0.0,////,0.0,0,0.0,////,28.9,0.0,12.3,3.511
2014/09/01,18:20:01,094,104,110,1.4,1.5,1.6,28.4,78.5,1004.6,0.00,0,0.0,////,0.0,0,0.0,////,28.4,0.0,12.3,3.513
2014/09/01,18:30:01,102,109,113,1.2,1.4,1.5,28.3,79.2,1004.7,0.00,0,0.0,////,0.0,0,0.0,////,27.7,0.0,12.3,3.513
2014/09/01,18:40:01,140,144,151,0.9,1.0,1.1,28.1,80.7,1004.7,0.00,0,0.0,////,0.0,0,0.0,////,27.4,0.0,12.3,3.513
2014/09/01,18:50:01,124,136,143,0.7,0.9,1.1,27.8,81.3,1004.7,0.00,0,0.0,////,0.0,0,0.0,////,27.0,0.0,12.3,3.514
2014/09/01,19:00:01,123,125,128,0.9,1.0,1.1,27.7,81.8,1004.7,0.00,0,0.0,////,0.0,0,0.0,////,26.7,0.0,12.3,3.513
2014/09/01,19:10:01,125,129,133,1.4,1.5,1.7,27.6,82.2,1004.7,0.00,0,0.0,////,0.0,0,0.0,////,26.8,0.0,12.3,3.514
2014/09/01,19:20:01,115,117,120,1.7,1.8,1.9,27.5,82.7,1004.7,0.00,0,0.0,////,0.0,0,0.0,////,26.5,0.0,12.3,3.511
2014/09/01,19:30:01,119,125,131,1.0,1.2,1.5,27.4,83.5,1004.7,0.00,0,0.0,////,0.0,0,0.0,////,26.5,0.0,12.3,3.513
2014/09/01,19:40:01,124,126,128,1.6,1.7,1.8,27.3,84.0,1004.7,0.00,0,0.0,////,0.0,0,0.0,////,26.5,0.0,12.3,3.511
2014/09/01,19:50:01,114,118,121,1.5,1.6,1.7,27.2,84.2,1004.8,0.00,0,0.0,////,0.0,0,0.0,////,26.3,0.0,12.3,3.511
2014/09/01,20:00:01,112,116,123,1.3,1.4,1.5,27.3,83.7,1004.8,0.00,0,0.0,////,0.0,0,0.0,////,26.3,0.0,12.3,3.513
2014/09/01,20:10:01,118,122,125,1.4,1.6,1.7,27.1,83.9,1004.7,0.00,0,0.0,////,0.0,0,0.0,////,26.3,0.0,12.3,3.513
2014/09/01,20:20:01,124,127,130,1.2,1.3,1.4,27.0,84.0,1004.8,0.00,0,0.0,////,0.0,0,0.0,////,25.8,0.0,12.3,3.513
2014/09/01,20:30:01,107,113,117,1.3,1.6,2.0,27.0,84.0,1004.9,0.00,0,0.0,////,0.0,0,0.0,////,26.0,0.0,12.3,3.513
2014/09/01,20:40:01,117,126,132,1.4,1.5,1.7,27.0,83.9,1005.0,0.00,0,0.0,////,0.0,0,0.0,////,26.2,0.0,12.3,3.511
2014/09/01,20:50:01,133,145,154,1.1,1.3,1.5,27.1,84.1,1005.1,0.00,0,0.0,////,0.0,0,0.0,////,26.0,0.0,12.3,3.513
2014/09/01,21:00:01,161,165,169,1.3,1.5,1.6,27.2,83.2,1005.2,0.00,0,0.0,////,0.0,0,0.0,////,26.3,0.0,12.3,3.513
2014/09/01,21:10:01,156,161,165,1.2,1.4,1.5,27.3,82.2,1005.3,0.00,0,0.0,////,0.0,0,0.0,////,26.3,0.0,12.3,3.513
2014/09/01,21:20:01,138,144,156,0.8,1.0,1.2,27.2,81.7,1005.2,0.00,0,0.0,////,0.0,0,0.0,////,26.3,0.0,12.3,3.511
2014/09/01,21:30:01,161,184,198,0.6,0.8,0.9,27.4,81.4,1005.2,0.00,0,0.0,////,0.0,0,0.0,////,26.2,0.0,12.3,3.513
2014/09/01,21:40:01,136,144,155,1.4,1.5,1.7,27.4,81.6,1005.2,0.00,0,0.0,////,0.0,0,0.0,////,26.3,0.0,12.3,3.514
2014/09/01,21:50:01,101,116,128,1.1,1.3,1.5,27.5,81.5,1005.3,0.00,0,0.0,////,0.0,0,0.0,////,26.7,0.0,12.3,3.513
2014/09/01,22:00:01,139,149,162,1.4,1.4,1.5,27.5,81.4,1005.3,0.00,0,0.0,////,0.0,0,0.0,////,26.2,0.0,12.3,3.513
2014/09/01,22:10:01,161,167,170,1.0,1.1,1.4,27.5,80.4,1005.3,0.00,0,0.0,////,0.0,0,0.0,////,26.5,0.0,12.3,3.513
2014/09/01,22:20:01,124,134,143,2.0,2.1,2.2,27.6,80.8,1005.4,0.00,0,0.0,////,0.0,0,0.0,////,26.7,0.0,12.3,3.513
2014/09/01,22:30:01,127,132,135,0.7,0.8,1.0,27.6,81.3,1005.2,0.00,0,0.0,////,0.0,0,0.0,////,26.7,0.0,12.3,3.514
2014/09/01,22:40:01,135,137,140,2.3,2.6,3.0,27.5,81.3,1005.2,0.00,0,0.0,////,0.0,0,0.0,////,26.5,0.0,12.3,3.511
2014/09/01,22:50:01,205,210,213,0.6,0.6,0.7,27.6,81.2,1005.4,0.00,0,0.0,////,0.0,0,0.0,////,26.7,0.0,12.3,3.513
2014/09/01,23:00:01,214,216,220,1.5,1.6,1.7,27.6,81.2,1005.6,0.00,0,0.0,////,0.0,0,0.0,////,26.7,0.0,12.3,3.513
2014/09/01,23:10:01,213,215,218,1.6,1.7,1.7,27.6,81.5,1005.6,0.00,0,0.0,////,0.0,0,0.0,////,26.5,0.0,12.3,3.514
2014/09/01,23:20:01,189,192,195,1.6,1.7,1.9,27.2,82.9,1005.6,0.00,0,0.0,////,0.0,0,0.0,////,26.0,0.0,12.3,3.513
2014/09/01,23:30:01,170,175,182,1.2,1.2,1.3,26.9,84.2,1005.6,0.00,0,0.0,////,0.0,0,0.0,////,26.0,0.0,12.3,3.513
2014/09/01,23:40:01,212,214,216,1.2,1.3,1.4,26.9,84.4,1005.7,0.00,0,0.0,////,0.0,0,0.0,////,25.8,0.0,12.3,3.513
2014/09/01,23:50:01,188,189,191,1.4,1.6,1.7,26.9,84.5,1005.6,0.00,0,0.0,////,0.0,0,0.0,////,25.8,0.0,12.3,3.514
2014/09/02,00:00:01,193,195,196,1.5,1.6,1.6,26.8,84.4,1005.6,0.00,0,0.0,////,0.0,0,0.0,////,25.8,0.0,12.3,3.514
2014/09/02,00:10:01,190,195,202,1.4,1.6,1.8,26.7,85.0,1005.3,0.00,0,0.0,////,0.0,0,0.0,////,25.6,0.0,12.3,3.513
2014/09/02,00:20:01,174,178,182,1.3,1.4,1.6,26.7,85.0,1005.1,0.00,0,0.0,////,0.0,0,0.0,////,25.8,0.0,12.3,3.511
2014/09/02,00:30:01,184,187,188,1.4,1.6,1.8,26.7,85.1,1005.1,0.00,0,0.0,////,0.0,0,0.0,////,25.6,0.0,12.3,3.514
2014/09/02,00:40:01,206,208,209,1.5,1.9,2.1,26.7,85.6,1005.0,0.00,0,0.0,////,0.0,0,0.0,////,25.5,0.0,12.3,3.513
2014/09/02,00:50:01,196,198,199,1.0,1.0,1.1,26.7,85.6,1004.9,0.00,0,0.0,////,0.0,0,0.0,////,25.6,0.0,12.3,3.511
2014/09/02,01:00:01,169,174,179,1.0,1.1,1.2,26.7,86.0,1004.8,0.00,0,0.0,////,0.0,0,0.0,////,25.6,0.0,12.3,3.513
2014/09/02,01:10:01,222,230,239,0.2,0.2,0.3,26.7,85.6,1004.9,0.00,0,0.0,////,0.0,0,0.0,////,25.5,0.0,12.3,3.510
2014/09/02,01:20:01,277,283,289,0.5,0.6,0.8,26.9,85.1,1005.0,0.00,0,0.0,////,0.0,0,0.0,////,25.8,0.0,12.3,3.516
2014/09/02,01:30:01,180,211,252,0.0,0.1,0.2,27.2,85.3,1005.0,0.00,0,0.0,////,0.0,0,0.0,////,26.0,0.0,12.3,3.513
2014/09/02,01:40:01,135,138,140,0.9,1.0,1.1,26.8,85.3,1004.9,0.00,0,0.0,////,0.0,0,0.0,////,25.8,0.0,12.3,3.514
2014/09/02,01:50:01,197,198,201,0.6,0.7,0.8,26.8,85.7,1004.8,0.00,0,0.0,////,0.0,0,0.0,////,25.8,0.0,12.3,3.513
2014/09/02,02:00:01,177,181,185,0.6,0.7,0.8,26.8,85.4,1004.8,0.00,0,0.0,////,0.0,0,0.0,////,25.5,0.0,12.3,3.511
2014/09/02,02:10:01,176,176,176,0.7,0.7,0.8,26.9,84.8,1004.7,0.00,0,0.0,////,0.0,0,0.0,////,25.5,0.0,12.3,3.514
2014/09/02,02:20:01,194,197,202,0.6,0.7,0.8,26.9,84.6,1004.6,0.00,0,0.0,////,0.0,0,0.0,////,25.6,0.0,12.3,3.513
2014/09/02,02:30:01,200,201,203,0.9,0.9,1.0,26.9,84.4,1004.6,0.00,0,0.0,////,0.0,0,0.0,////,25.6,0.0,12.3,3.514
2014/09/02,02:40:01,227,228,229,0.7,0.8,0.9,26.9,84.4,1004.7,0.00,0,0.0,////,0.0,0,0.0,////,25.8,0.0,12.4,3.513
2014/09/02,02:50:01,190,191,192,1.1,1.2,1.3,26.8,84.7,1004.6,0.00,0,0.0,////,0.0,0,0.0,////,25.8,0.0,12.3,3.513
2014/09/02,03:00:01,197,197,198,1.2,1.2,1.3,26.8,85.0,1004.6,0.00,0,0.0,////,0.0,0,0.0,////,25.5,0.0,12.3,3.513
2014/09/02,03:10:01,191,193,195,1.4,1.5,1.5,26.7,85.0,1004.6,0.00,0,0.0,////,0.0,0,0.0,////,25.6,0.0,12.3,3.511
2014/09/02,03:20:01,178,179,179,1.2,1.3,1.4,26.6,85.8,1004.5,0.00,0,0.0,////,0.0,0,0.0,////,25.5,0.0,12.3,3.513
2014/09/02,03:30:01,172,175,177,1.4,1.4,1.5,26.5,86.2,1004.6,0.00,0,0.0,////,0.0,0,0.0,////,25.5,0.0,12.3,3.513
2014/09/02,03:40:01,187,187,188,0.6,0.7,0.8,26.5,86.5,1004.6,0.00,0,0.0,////,0.0,0,0.0,////,25.5,0.0,12.2,3.513
2014/09/02,03:50:01,188,193,195,0.9,1.0,1.0,26.7,85.7,1004.7,0.00,0,0.0,////,0.0,0,0.0,////,26.0,0.0,12.3,3.513
2014/09/02,04:00:01,162,162,163,0.7,0.7,0.8,26.9,85.0,1004.7,0.00,0,0.0,////,0.0,0,0.0,////,26.0,0.0,12.3,3.514
2014/09/02,04:10:01,202,202,203,0.9,0.9,1.0,27.1,84.4,1004.7,0.00,0,0.0,////,0.0,0,0.0,////,26.2,0.0,12.3,3.511
2014/09/02,04:20:01,173,176,177,1.4,1.6,1.7,27.1,84.0,1004.7,0.00,0,0.0,////,0.0,0,0.0,////,26.3,0.0,12.3,3.513
2014/09/02,04:30:01,176,184,195,1.3,1.4,1.5,26.9,85.1,1004.6,0.00,0,0.0,////,0.0,0,0.0,////,26.0,0.0,12.4,3.513
2014/09/02,04:40:01,194,195,196,1.1,1.2,1.2,26.9,85.3,1004.7,0.00,0,0.0,////,0.0,0,0.0,////,26.0,0.0,12.3,3.513
2014/09/02,04:50:01,166,170,172,1.1,1.2,1.3,26.8,85.2,1004.7,0.00,0,0.0,////,0.0,0,0.0,////,25.8,0.0,12.3,3.513
2014/09/02,05:00:01,163,168,174,1.0,1.2,1.3,26.7,85.7,1004.7,0.00,0,0.0,////,0.0,0,0.0,////,25.6,0.0,12.3,3.513
2014/09/02,05:10:01,172,175,176,1.1,1.2,1.3,26.9,85.1,1004.7,0.00,0,0.0,////,0.0,0,0.0,////,26.0,0.0,12.3,3.513
2014/09/02,05:20:01,137,137,138,0.5,0.6,0.6,27.1,84.3,1004.6,0.00,0,0.0,////,0.0,0,0.0,////,26.0,0.0,12.3,3.513
2014/09/02,05:30:01,106,116,128,1.0,1.1,1.3,26.4,84.2,1004.5,0.00,0,0.0,////,0.0,0,0.0,////,25.6,0.0,12.3,3.513
2014/09/02,05:40:01,186,189,190,1.0,1.0,1.1,26.2,86.0,1004.6,0.00,0,0.0,////,0.0,0,0.0,////,25.3,0.0,12.3,3.514
2014/09/02,05:50:01,194,195,197,1.2,1.3,1.4,26.4,86.4,1004.6,0.00,0,0.0,////,0.0,0,0.0,////,25.3,0.0,12.3,3.513
2014/09/02,06:00:01,222,225,227,1.0,1.1,1.2,26.5,84.7,1004.6,0.00,0,0.0,////,0.0,0,0.0,////,25.6,0.0,12.2,3.513
2014/09/02,06:10:01,201,202,204,0.9,1.1,1.2,26.8,83.1,1004.6,0.00,0,0.0,////,0.0,0,0.0,////,25.8,0.0,12.3,3.513
2014/09/02,06:20:01,198,199,200,1.2,1.2,1.3,26.9,83.2,1004.8,0.00,0,0.0,////,0.0,0,0.0,////,25.8,0.0,12.3,3.511
2014/09/02,06:30:01,195,196,196,1.1,1.1,1.2,26.9,83.6,1004.8,0.00,0,0.0,////,0.0,0,0.0,////,26.2,0.0,12.3,3.513
2014/09/02,06:40:01,220,222,223,0.5,0.6,0.7,27.2,82.7,1004.9,0.00,0,0.0,////,0.0,0,0.0,////,27.4,0.0,12.3,3.511
2014/09/02,06:50:01,208,209,210,0.5,0.6,0.7,27.5,82.0,1005.0,0.00,0,0.0,////,0.0,0,0.0,////,28.2,0.0,12.3,3.513
2014/09/02,07:00:01,192,192,193,0.5,0.7,0.8,27.7,82.1,1004.9,0.00,0,0.0,////,0.0,0,0.0,////,28.7,0.0,12.3,3.513
2014/09/02,07:10:01,217,221,224,0.9,1.0,1.2,27.9,82.6,1004.8,0.00,0,0.0,////,0.0,0,0.0,////,29.4,0.0,12.2,3.513
2014/09/02,07:20:01,223,228,232,1.6,1.8,1.9,28.2,82.3,1004.8,0.00,0,0.0,////,0.0,0,0.0,////,30.0,0.0,12.2,3.511
2014/09/02,07:30:01,227,231,233,1.5,1.6,1.7,28.3,81.5,1004.7,0.00,0,0.0,////,0.0,0,0.0,////,30.3,0.0,12.3,3.511
2014/09/02,07:40:01,243,261,272,0.7,0.9,1.1,28.5,81.8,1004.8,0.00,0,0.0,////,0.0,0,0.0,////,30.5,0.0,12.3,3.511
2014/09/02,07:50:01,218,223,229,1.2,1.3,1.4,28.6,80.8,1004.8,0.00,0,0.0,////,0.0,0,0.0,////,30.8,0.0,12.3,3.513
2014/09/02,08:00:01,229,234,242,0.9,1.0,1.3,28.9,80.3,1004.9,0.00,0,0.0,////,0.0,0,0.0,////,31.5,0.0,12.2,3.511
2014/09/02,08:10:01,248,251,255,1.3,1.5,1.9,29.1,78.6,1004.8,0.00,0,0.0,////,0.0,0,0.0,////,32.2,0.0,12.3,3.511
2014/09/02,08:20:01,240,242,244,1.3,1.4,1.5,29.1,77.5,1004.8,0.00,0,0.0,////,0.0,0,0.0,////,32.2,0.0,12.3,3.511
2014/09/02,08:30:01,249,255,259,1.3,1.4,1.6,29.4,76.3,1004.9,0.00,0,0.0,////,0.0,0,0.0,////,32.9,0.0,12.3,3.511
2014/09/02,08:40:01,286,289,292,0.9,1.0,1.1,29.7,71.4,1005.0,0.00,0,0.0,////,0.0,0,0.0,////,34.3,0.0,12.3,3.511
2014/09/02,08:50:01,224,227,230,1.2,1.3,1.4,30.2,70.7,1005.0,0.00,0,0.0,////,0.0,0,0.0,////,35.0,0.0,12.3,3.510
2014/09/02,09:00:01,231,245,255,1.1,1.3,1.6,30.3,69.0,1005.0,0.00,0,0.0,////,0.0,0,0.0,////,35.0,0.0,12.3,3.510
2014/09/02,09:10:01,230,246,255,1.3,1.6,1.8,30.2,69.1,1004.9,0.00,0,0.0,////,0.0,0,0.0,////,34.3,0.0,12.3,3.510
2014/09/02,09:20:01,205,225,246,1.5,1.8,2.0,30.0,71.9,1004.8,0.00,0,0.0,////,0.0,0,0.0,////,33.6,0.0,12.3,3.513
2014/09/02,09:30:01,252,264,278,0.8,1.0,1.2,30.2,71.7,1004.9,0.00,0,0.0,////,0.0,0,0.0,////,34.3,0.0,12.3,3.510
2014/09/02,09:40:01,288,292,298,1.8,2.0,2.2,30.6,71.2,1004.9,0.00,0,0.0,////,0.0,0,0.0,////,35.3,0.0,12.3,3.511
2014/09/02,09:50:01,262,264,266,1.5,1.7,1.8,30.5,70.7,1005.1,0.00,0,0.0,////,0.0,0,0.0,////,35.8,0.0,12.3,3.511
2014/09/02,10:00:01,315,351,012,0.3,0.4,0.5,30.8,69.5,1005.1,0.00,0,0.0,////,0.0,0,0.0,////,36.3,0.0,12.3,3.511
2014/09/02,10:10:01,260,283,308,0.6,0.8,0.9,31.0,67.6,1005.1,0.00,0,0.0,////,0.0,0,0.0,////,37.5,0.0,12.3,3.513
2014/09/02,10:20:01,273,274,275,1.2,1.5,1.7,30.8,67.3,1005.1,0.00,0,0.0,////,0.0,0,0.0,////,37.2,0.0,12.3,3.511
2014/09/02,10:30:01,273,280,289,1.4,1.5,1.7,30.8,67.2,1005.0,0.00,0,0.0,////,0.0,0,0.0,////,37.0,0.0,12.2,3.511
2014/09/02,10:40:01,263,282,295,0.3,0.4,0.5,31.0,70.1,1005.1,0.00,0,0.0,////,0.0,0,0.0,////,36.7,0.0,12.3,3.511